Location: Aula-Vintri
(58.3875°N, 22.4322°E)
Time: 15:43:54
(UTC+00:00)

ARGOS - Pass Details

Date: 13 October 2019
Orbit: 820 x 835 km, 98.5° (Epoch: 11 November)

Event Time Altitude Azimuth Distance (km) Brightness Sun altitude
Exits shadow 18:11:36 27° 165° (SSE) 1,541 4.2 -21.5°
Maximum altitude 18:14:39 86° 252° (WSW) 846 3.1 -21.9°
Drops below altitude 10° 18:20:08 10° 342° (NNW) 2,461 6.1 -22.5°
Sets 18:22:30 0° 343° (NNW) 3,400 6.9 -22.8°
